Theta_e
326 325 325 324 322 322 321 321 320 317 316 315 314 313 311 308 305 305 304 303 303 300
324 324 321 320 320 318 315 312 311 310 308 306 305 304 303 301 299 298 298 298 296 295
317 321 318 315 313 312 308 307 305 303 300 299 297 297 297 295 294 294 293 293 292 292
308 310 310 310 308 306 303 300 298 297 295 294 293 293 293 292 291 290 290 290 290 289
301 303 303 302 300 300 297 295 294 293 291 291 290 290 290 289 289 288 288 288 288 287
298 299 298 296 295 295 293 292 290 290 289 289 288 288 288 288 287 287 286 286 286 286
295 295 294 293 292 291 291 289 288 288 287 287 287 287 286 286 286 285 285 286 285 285
290 290 290 289 288 288 288 287 287 286 286 286 286 285 286 285 285 285 284 284 284 285
289 288 288 287 286 286 285 285 285 286 286 286 286 289 288 286 285 284 283 283 283 284
287 286 286 286 285 284 284 285 284 285 286 286 288 289 288 286 284 284 283 283 283 283
286 285 285 284 284 283 284 284 283 283 284 285 287 289 287 285 284 283 283 283 284 283
285 284 283 283 283 282 282 282 282 282 283 285 286 288 287 285 283 283 283 283 284 283
285 284 284 283 282 281 282 281 281 281 282 282 285 288 287 285 284 283 282 283 283 282
284 284 283 281 280 281 281 280 280 280 280 281 282 285 288 287 283 282 281 281 281 282
Wind_Speed
13 9 9 9 6 6 5 6 5 6 6 5 7 7 8 6 5 6 6 8 7 6
10 10 8 7 5 6 7 6 8 8 9 6 7 8 8 6 7 7 6 8 8 7
5 8 7 7 8 10 10 10 10 9 9 8 8 7 9 8 8 9 6 6 8 6
5 6 7 8 9 11 10 10 11 8 11 9 8 7 9 9 9 9 8 6 8 7
7 8 8 8 9 11 12 9 11 10 11 10 9 8 10 10 7 9 8 7 8 6
8 9 9 10 10 11 12 11 10 11 12 11 10 10 8 9 8 9 8 7 7 7
7 9 9 9 10 11 10 12 10 9 11 10 10 9 8 9 9 8 7 8 7 7
8 8 9 9 9 11 10 9 10 11 9 9 8 7 9 9 9 9 9 7 7 6
9 9 9 10 10 11 10 10 10 10 10 8 5 14 14 11 8 7 8 8 7 6
9 10 9 10 11 10 10 9 9 9 9 9 7 15 15 13 7 7 7 8 7 5
10 11 10 10 10 9 8 9 9 8 8 8 6 14 14 12 7 7 7 7 6 6
11 11 11 11 11 7 9 7 6 6 8 8 7 14 14 11 6 6 6 5 5 5
12 13 12 11 10 4 7 7 6 6 6 6 8 14 14 10 5 6 4 4 4 8
11 12 11 10 5 8 8 8 7 7 5 6 5 7 13 13 5 5 4 4 3 3
Wind_Direction
200 200 200 190 172 173 168 147 134 122 116 114 115 107 104 99 89 95 100 100 88 87
198 195 192 172 148 139 128 125 128 126 112 94 96 104 107 109 104 97 96 95 96 97
173 176 163 153 149 142 131 127 126 121 109 109 103 105 112 108 107 105 99 103 104 96
168 141 144 149 144 138 128 128 120 131 120 119 120 119 110 106 112 110 108 98 97 91
143 139 138 140 137 136 130 127 124 128 120 127 125 117 116 115 120 115 111 111 104 101
145 143 142 141 135 128 129 127 126 131 131 131 123 119 119 122 118 110 117 120 116 113
143 140 138 134 129 128 129 131 130 129 124 124 124 125 125 120 113 122 115 107 104 104
118 118 122 121 121 117 122 124 125 121 117 124 127 134 135 126 132 130 117 113 113 121
124 125 127 127 126 124 125 128 127 125 131 130 126 140 137 133 129 130 130 135 137 142
135 132 134 132 129 130 135 135 132 131 131 131 134 142 136 131 132 134 144 145 148 147
146 141 141 137 137 134 141 142 143 135 133 131 141 143 135 142 138 142 153 154 154 135
152 148 146 147 148 140 141 135 134 140 137 140 140 147 151 156 151 157 158 163 158 160
157 156 157 151 150 135 140 132 138 127 141 135 143 161 167 166 164 159 164 173 183 192
158 155 152 142 133 143 137 131 131 134 139 144 156 169 181 183 177 171 168 177 191 217